Regional Weather Roundup
Issued by NWS Grand Forks, ND

Home | Current Version | Previous Version | Graphics & Text | Print | Product List | Glossary On
Versions: 1 2 3 4 5 6 7 8 9 10 11 12 13 14 15 16 17 18 19 20 21 22 23 24 25 26 27 28 29 30 31 32 33 34 35 36 37 38 39 40 41 42 43 44 45 46 47 48 49 50
847
ASUS43 KFGF 212110
RWRFGF
PRAIRIE TO PINES  WEATHER ROUNDUP
NATIONAL WEATHER SERVICE EASTERN NORTH DAKOTA/GRAND FORKS ND
400 PM CDT THU MAY 21 2015

 **SATELLITE DATA USED TO AUGMENT SKY COVER AT AUTOMATED STATIONS**
 *****  WEATHER ACROSS EASTERN NORTH DAKOTA  *****

CITY           SKY/WX    TMP DP  RH WIND       PRES   REMARKS
GRAND FORKS    SUNNY     67  37  33 N9        30.13S
GRAND FRKS AFB SUNNY     68  34  29 N12       30.14F
GRAND FRKS NWS   N/A     64 N/A N/A VRB3        N/A
DEVILS LAKE    SUNNY     66  30  26 SW8       30.14F
FARGO          SUNNY     69  38  32 NW9       30.12F
WAHPETON ARPT  CLEAR     68  32  26 N16       30.12F
$$

 ***** WEATHER ACROSS CENTRAL AND WESTERN NORTH DAKOTA  *****

CITY           SKY/WX    TMP DP  RH WIND       PRES   REMARKS
BISMARCK       SUNNY     74  29  19 CALM      30.13F
MINOT          SUNNY     73  33  23 VRB3      30.13F
JAMESTOWN      SUNNY     70  32  24 N6        30.13F
MINOT AFB      SUNNY     75  36  24 CALM      30.12F
GARRISON         N/A     72  29  20 NE5       30.13F
WILLISTON      SUNNY     75  31  19 S12       30.14F
DICKINSON      SUNNY     69  30  23 VRB5      30.15F
HETTINGER      SUNNY     67  31  26 SE9G18    30.18F
$$

 *****  OTHER AIRPORT OBSERVATIONS IN OUR AREA  *****

CITY           SKY/WX    TMP DP  RH WIND       PRES   REMARKS
WALHALLA       FAIR      66  30  26 N6        30.15F
GRAFTON AIRPOR FAIR      66  36  32 N9        30.15S
VALLEY CITY AR FAIR      68  32  26 N7        30.13F
CANDO          FAIR      70  28  21 NE7       30.15S
CAVALIER APRT  FAIR      66  36  32 NE9G17    30.15S
GWINNER        NOT AVBL
SHEYENNE NWR     N/A     70  34  26 N8        29.95S
ROLLA          FAIR      68  28  22 NE7       30.16F
 ***** THE ABOVE OBSERVATIONS ARE NON NWS ARE NOT QUALITY
       CONTROLLED AND MAY MIS-REPORT RAIN FOR SNOW...
$$

  *****  WEATHER ACROSS NORTHERN MINNESOTA  *****

CITY           SKY/WX    TMP DP  RH WIND       PRES   REMARKS
FLAG ISLAND    SUNNY     61  30  31 N15       30.10F
WARROAD        SUNNY     61  37  41 E9        30.12S
ROSEAU         SUNNY     66  28  24 N8        30.11S
HALLOCK        SUNNY     66  32  28 NW7       30.13S
THF RVR FALLS  SUNNY     64  34  32 N8        30.12F
BAUDETTE       SUNNY     62  30  29 NW12G18   30.11S
WASKISH        SUNNY     64  34  32 NW12      30.10F
CROOKSTON      SUNNY     66  36  32 N14       30.13S
STEPHEN NDAWN    N/A     66  37  34 NW12        N/A
GREENBUSH NDAW   N/A     64  39  39 NW10        N/A
$$
  *****  WEATHER ACROSS CENTRAL AND WEST MINNESOTA  *****

CITY           SKY/WX    TMP DP  RH WIND       PRES   REMARKS
FOSSTON        SUNNY     66  34  30 N7        30.12S
BEMIDJI        SUNNY     65  31  28 N12       30.10S
PARK RAPIDS    SUNNY     69  29  22 N8        30.08F
ELBOW LAKE     FAIR      67  34  30 NW15      30.10F
WADENA         SUNNY     68  36  30 N9G18     30.08S
DETROIT LAKES  SUNNY     66  32  28 N7G18     30.12S
MOORHEAD       SUNNY     66  36  32 NW7G18    30.13S
FERGUS FALLS   SUNNY     68  36  30 N12G20    30.11F
MORRIS MN      SUNNY     72  30  21 N12G24    30.10S
STAPLES        SUNNY     68  27  21 N14       30.08S
$$
  *****  WEATHER ELSEWHERE ACROSS MINNESOTA  *****

CITY           SKY/WX    TMP DP  RH WIND       PRES   REMARKS
DULUTH         MOSUNNY   67  28  23 N14G24    30.01S
INTRNTL FALLS  SUNNY     63  29  27 N10G23    30.08S
ELY            SUNNY     63  23  22 CALM      30.03S
CLOQUET        SUNNY     66  21  18 NW15G23   30.02S
WHEATON        SUNNY     68  34  28 NW14G21   30.13S
BRAINERD       SUNNY     67  31  26 N14G22    30.07F
HIBBING        SUNNY     67  26  21 N16       30.03S
ALEXANDRIA     SUNNY     68  32  26 NW16G24   30.11S
SAINT CLOUD    SUNNY     70  32  24 N10G18    30.05R
MINNEAPOLIS    SUNNY     73  35  25 NW17G25   30.02R
$$

  *****  WEATHER ACROSS SOUTH DAKOTA  *****

CITY           SKY/WX    TMP DP  RH WIND       PRES   REMARKS
SIOUX FALLS    MOSUNNY   74  36  25 NW16G26   30.12F
BROOKINGS      SUNNY     72  37  28 NW15G21   30.13F
WATERTOWN      SUNNY     72  38  29 NW16      30.13F
HURON          MOSUNNY   76  35  22 NW10      30.13F
SISSETON         N/A     73  24  16 N18G24    30.11S
ABERDEEN       SUNNY     75  40  28 N12       30.13F
MITCHELL       SUNNY     75  36  24 NW14G20   30.16F
PIERRE         SUNNY     70  33  25 VRB5      30.17F
MOBRIDGE       SUNNY     75  30  19 NW8       30.13F
RAPID CITY     SUNNY     62  34  35 S15       30.19F
$$

  *****  SOME WEATHER IN NEARBY STATES *****

CITY           SKY/WX    TMP DP  RH WIND       PRES   REMARKS
GLASGOW MT     SUNNY     71  29  21 SE17G28   30.11F
GREAT FALLS MT SUNNY     68  36  30 NE8       29.98F
CHEYENNE WY    CLOUDY    47  40  76 S10       30.17F
SCOTTSBLUFF NE CLOUDY    55  42  61 SE15      30.18F
OMAHA NE       MOSUNNY   73  40  30 W7        30.18F
DES MOINES IA  MOSUNNY   76  36  23 NW15G25   30.11F
DAVENPORT IA   SUNNY     71  37  28 W12G22    30.08F
CHICAGO IL     MOSUNNY   68  35  29 W14G21    30.03F
EAU CLAIRE WI  MOSUNNY   73  37  27 N13       29.97S
LA CROSSE WI   MOSUNNY   77  39  25 NW13G23   29.96S
$$

  *****  SOME NATIONAL WEATHER *****

CITY           SKY/WX    TMP DP  RH WIND       PRES   REMARKS
LA GUARDIA NY  CLOUDY    59  41  51 S10       29.92F
RALEIGH NC     CLOUDY    64  59  83 N6        29.85F
ATLANTA GA     MOSUNNY   78  60  53 NW15G22   29.98S
NEW ORLEANS LA PTSUNNY   84  70  62 E10       29.98F THUNDER
OKLAHOMA CITY  PTSUNNY   65  46  50 NE7       30.22F
ALBUQUERQUE NM CLOUDY    59  44  57 E26G38    30.08F
SALT LAKE CITY LGT RAIN  64  41  42 NE13      29.89F
LOS ANGELES CA MOSUNNY   65  52  62 W15       29.97F
BOISE ID       CLOUDY    66  48  52 N6        29.85F
SEATTLE WA     PTSUNNY   73  54  51 W10       29.86F
$$

*** WEATHER ACROSS MANITOBA...SASKATCHEWAN AND ONTARIO ***
                ***ONTARIO***

CITY           SKY/WX    TMP DP  RH WIND       PRES   REMARKS
GERALDTON      MOSUNNY   48  14  25 N14G23    29.99R
THUNDER BAY    MOSUNNY   63  19  19 N14G24    29.98R
SIOUX LOOKOUT  MOSUNNY   57  21  24 N12G20    30.07S
TORONTO        PTSUNNY   68  30  24 W15G23    29.83F
BIG TROUT LK   PTSUNNY   37  21  52 N5        30.17S
PICKLE LAKE    MOSUNNY   46  12  25 N13G23    30.08R
DRYDEN         SUNNY     59  27  29 N9G17     30.08S
KENORA         MOSUNNY   61  25  25 NW10G18   30.11S
$$
                *** MANITOBA***

CITY           SKY/WX    TMP DP  RH WIND       PRES   REMARKS
BRANDON        MOSUNNY   70  34  26 E2        30.14F
DAUPHIN        SUNNY     75  34  22 E9        30.10F
ISLAND LAKE    MOSUNNY   54  16  22 W5        30.16F
PILOT MOUND      N/A     66  25  20 N7          N/A
THE PAS        MOSUNNY   73  37  27 S15G21    30.04F
THOMPSON       MOSUNNY   61  27  27 VRB3      30.12F
WINNIPEG       MOSUNNY   64  36  34 VRB2      30.15F
LYNN LAKE      SUNNY     68  28  22 S9G17     30.05F
CHURCHILL      MOSUNNY   41  16  36 E5        30.20F
GILLAM         MOSUNNY   50  18  27 NW3       30.17F
$$
                ***SASKATCHEWAN***

CITY           SKY/WX    TMP DP  RH WIND       PRES   REMARKS
ESTEVAN        PTSUNNY   73  27  17 NE5       30.13F
KINDERSLEY     SUNNY     75  27  16 S20G25    30.07F
LLOYDMINSTER   MOSUNNY   73  21  14 S15G24    30.05F
PRINCE ALBERT  MOSUNNY   79  30  17 SW6       30.07F
REGINA         MOSUNNY   73  27  17 SE5       30.13F
YORKTON        MOSUNNY   73  30  20 NW3       30.10F
N. BATTLEFORD  SUNNY     75  27  16 S10G21    30.10F
LA RONGE       MOSUNNY   81  25  12 SW15      30.01F
SASKATOON      SUNNY     75  27  16 SW8       30.12F
SWIFT CURRENT  SUNNY     72  27  18 S22G31    30.10
$$
NOTE: THESE ARE AUTOMATED STATIONS WITH LIMITED QUALITY CONTROL
      "FAIR" INDICATES FEW OR NO CLOUDS BELOW 12,000 FEET WITH NO
      SIGNIFICANT WEATHER AND/OR OBSTRUCTIONS TO VISIBILITY.
      SKY/WX - SKY CONDITION AND SIGNIFICANT WEATHER.
      TMP - AIR TEMPERATURE.    DP   - DEWPOINT TEMPERATURE.
      RH  - RELATIVE HUMIDITY.  PRES - PRESSURE.
      HX  - HEAT INDEX.         WCI  - WIND CHILL INDEX.
$



USA.gov is the U.S. government's official web portal to all federal, state and local government web resources and services.